Flag for U.S.A. Weather past 2 weeks in Omaha, Nebraska, U.S.A.

Now
84 °F

Sunny.


Feels Like: 83 °F
Forecast: 65 / 81 °F
Wind: 8 mph from Northwest

Location: Millard Airport

Current Time: Sep 20, 2014 at 6:03:27 PM

Latest Report: Sep 20, 2014 at 5:35 PM


Visibility: 10 mi

Pressure: 29.91 "Hg

Humidity: 42%

Dew point: 58 °F

Location of OmahaLocation

Historic Weather in Omaha — Graph

°F

Omaha temperature yesterday

Maximum temperature yesterday: 89 °F (at 4:15 PM)
Minimum temperature yesterday: 61 °F (at 1:55 AM)
Average temperature yesterday: 73 °F

Past Weeks' High & Low Weather Summary

 TemperatureHumidityPressure
High89 °F (Sep 19, 4:15 PM)98% (Sep 13, 6:55 AM)30.47 "Hg (Sep 13, 6:55 AM)
Low38 °F (Sep 13, 7:15 AM)40% (Sep 20, 4:35 PM)29.59 "Hg (Sep 9, 6:55 PM)
Average63 °F79%30.06 "Hg
* Reported Sep 5 4:15 PM — Sep 20 4:55 PM, Omaha, Weather by CustomWeather, © 2014

Note: Actual official high and low records may vary slightly from our data, if they occured in-between our weather recording intervals... More about our weather records

Advertising

Omaha weather history for previous 24 hours

 ConditionsComfort  
Time TempWeatherWind HumidityBarometerVisibility
4:55 PM
Sep 20
84 °FSunny.13 mph41%29.91 "Hg10 mi
4:35 PM84 °FSunny.10 mph40%29.92 "Hg10 mi
3:15 PM84 °FSunny.6 mph48%29.92 "Hg10 mi
2:55 PM84 °FSunny.12 mph46%29.91 "Hg10 mi
2:35 PM84 °FScattered clouds.13 mph53%29.92 "Hg10 mi
2:15 PM83 °FScattered clouds.7 mph58%29.92 "Hg10 mi
1:55 PM82 °FSunny.8 mph60%29.93 "Hg10 mi
1:35 PM82 °FSunny.7 mph59%29.93 "Hg10 mi
1:15 PM81 °FSunny.7 mph65%29.93 "Hg10 mi
12:55 PM80 °FSunny.6 mph68%29.92 "Hg10 mi
8:15 AM69 °FPartly sunny.No wind88%29.92 "Hg10 mi
7:55 AM69 °FPartly cloudy.3 mph87%29.92 "Hg10 mi
7:35 AM70 °FPassing clouds.5 mph86%29.91 "Hg10 mi
7:15 AM70 °FThunderstorms. Passing clouds.5 mph89%29.89 "Hg10 mi
6:55 AM71 °FThundershowers. Passing clouds.No wind88%29.89 "Hg10 mi
6:35 AM71 °FMostly cloudy.5 mph87%29.87 "Hg10 mi
6:15 AM72 °FThundershowers. Passing clouds.6 mph84%29.86 "Hg10 mi
5:55 AM70 °FThunderstorms. Partly cloudy.3 mph88%29.86 "Hg10 mi
5:15 AM72 °FStrong thunderstorms. Partly cloudy.7 mph84%29.86 "Hg4 mi
4:55 AM72 °FThunderstorms. Partly cloudy.7 mph88%29.86 "Hg10 mi
4:15 AM71 °FThundershowers. Partly cloudy.No wind88%29.87 "Hg10 mi
3:55 AM72 °FThundershowers. Passing clouds.No wind85%29.85 "Hg10 mi
3:15 AM75 °FMostly cloudy.5 mph78%29.84 "Hg10 mi
2:55 AM74 °FPassing clouds.6 mph79%29.84 "Hg10 mi
2:15 AM73 °FPassing clouds.5 mph82%29.82 "Hg10 mi
1:55 AM73 °FClear.6 mph83%29.82 "Hg10 mi
1:35 AM74 °FClear.6 mph83%29.82 "Hg10 mi
1:15 AM74 °FClear.6 mph83%29.81 "Hg10 mi
12:55 AM74 °FClear.7 mph83%29.81 "Hg10 mi
12:35 AM74 °FClear.7 mph83%29.81 "Hg10 mi
12:15 AM74 °FClear.6 mph83%29.81 "Hg10 mi
11:55 PM
Sep 19
74 °FClear.9 mph83%29.81 "Hg10 mi
11:15 PM75 °FClear.8 mph82%29.81 "Hg10 mi
10:55 PM75 °FClear.9 mph82%29.81 "Hg10 mi
10:35 PM76 °FClear.10 mph82%29.81 "Hg10 mi
10:15 PM76 °FClear.10 mph80%29.81 "Hg10 mi
9:55 PM77 °FClear.12 mph79%29.82 "Hg10 mi
9:35 PM77 °FClear.13 mph78%29.82 "Hg10 mi
9:15 PM78 °FClear.9 mph77%29.82 "Hg10 mi
8:55 PM78 °FClear.10 mph78%29.81 "Hg10 mi
8:15 PM78 °FSunny.8 mph76%29.81 "Hg10 mi
7:55 PM80 °FSunny.6 mph70%29.79 "Hg10 mi
7:15 PM84 °FSunny.7 mph59%29.79 "Hg10 mi
6:55 PM85 °FSunny.5 mph58%29.79 "Hg10 mi
6:35 PM87 °FSunny.9 mph53%29.79 "Hg10 mi
6:15 PM88 °FSunny.9 mph49%29.79 "Hg10 mi
6:00 PM88 °FSunny.7 mph49%29.79 "Hg10 mi
Weather by CustomWeather, © 2014

See weather overviewHow to use our weather pages